Vertical_Velocity
2 3 -1 -4 5 1 -6 4 3 4 2 -0 2 3 -1 1 5 3 2 4 0 -3 -0 3 -2 -2 -1 -3 -7 -0 -6 -6
5 -8 4 0 -15 -1 2 5 -14 -2 3 8 3 -4 -4 -11 -3 -5 -2 -2 -2 -0 -6 -9 -3 2 -2 -9 -6 -5 6 -8
-2 1 -4 8 9 15 0 -5 -3 -3 -0 1 -0 -1 -3 -0 -5 -10 -5 -3 1 -1 -1 -3 -6 -6 3 0 -5 -4 -2 -2
4 2 3 -3 -3 -0 1 2 -1 -1 1 0 1 2 -0 3 -1 -2 -7 -6 -9 -5 -3 -3 -0 -1 -2 1 3 -0 -4 5
7 -4 -4 -6 -4 -2 -0 8 3 -6 -2 2 -0 2 5 2 1 2 1 4 0 -2 -6 -4 -7 -6 -5 -6 -6 -5 -1 -2
8 5 3 3 -0 1 -0 -0 3 2 -3 -4 2 5 -2 -4 2 -0 -1 -0 -1 2 -4 -3 -2 -0 -4 -6 -2 -6 -6 -3
-3 3 5 4 2 -1 -4 -2 -9 -1 7 5 8 12 6 2 4 2 -0 1 2 -8 -2 -5 -3 -2 3 1 3 -1 2 1
-4 -5 3 12 5 3 -0 2 1 -2 -9 -7 -4 -4 -6 -5 1 1 5 6 -0 1 1 2 3 -0 -1 -0 2 -4 -4 -0
5 2 7 2 5 7 1 2 6 7 2 -4 -6 -1 -1 0 2 -1 -1 -4 -5 -3 -0 -1 -4 0 -4 -6 -5 -3 -5 -0
5 -4 -6 -6 -7 -3 -1 -1 -3 -3 3 1 -2 -5 -6 1 0 -0 -3 -3 -3 1 -0 -4 -1 -4 -1 -2 -4 -5 -5 -5
-2 1 -1 -4 -3 -0 -0 -0 2 -1 -1 3 1 -1 -6 -2 -2 -4 -1 -0 0 -1 0 2 -1 -3 -2 -5 -3 -2 -3 1
3 -1 -2 1 2 -0 -4 -4 -1 4 6 2 -1 -5 4 -3 -0 -3 3 -1 -4 -1 0 0 -1 -1 -2 -1 1 2 0 -1
1 2 -4 -3 -3 -3 2 6 3 -3 -4 -6 4 2 3 6 14 5 -3 -0 3 4 -0 0 -2 -4 -1 1 3 0 -1 1
4 -2 1 2 5 4 1 0 1 -1 6 -1 2 -3 1 -6 -13 0 3 -3 -2 1 -1 -0 -3 -4 2 4 2 3 1 1
-1 -0 -0 -1 1 1 -1 2 -3 -5 -1 -3 -5 -1 -7 -2 -6 -9 -4 -3 -0 2 0 2 -8 -2 0 -1 0 1 1 1
-1 0 1 -1 -1 0 -1 -0 1 -1 -1 -3 3 3 -3 -3 5 4 -2 6 4 -6 -4 8 -6 -0 -2 -2 1 0 -2 -0
-0 -3 -2 1 -1 0 5 1 1 1 1 -3 -4 2 2 -0 -3 -2 7 3 3 -5 1 -4 -3 0 -3 -1 3 1 -2 -4
-1 -2 -1 -2 2 1 -5 -2 -1 -0 -1 1 -4 -4 -1 2 7 -3 -1 4 -1 3 -1 -3 -0 -4 -2 -4 -1 -0 -3 -3
2 0 -0 -2 -3 -7 -5 -2 1 -6 3 -3 1 1 3 3 2 7 -4 -4 -2 4 -2 -4 -2 -1 -2 -1 -3 -4 -4 -2
Height
5820 5820 5819 5817 5817 5816 5812 5809 5805 5798 5793 5792 5789 5783 5779 5773 5770 5765 5762 5757 5752 5746 5742 5738 5733 5729 5726 5723 5720 5717 5713 5711
5818 5816 5816 5813 5808 5807 5804 5801 5795 5791 5787 5785 5781 5775 5768 5763 5758 5753 5748 5744 5740 5737 5731 5726 5723 5719 5714 5708 5703 5699 5696 5692
5816 5815 5811 5809 5808 5805 5800 5796 5791 5787 5781 5776 5772 5767 5762 5756 5749 5742 5738 5734 5729 5723 5717 5713 5707 5702 5697 5691 5685 5682 5677 5669
5816 5813 5810 5806 5803 5799 5795 5790 5785 5779 5774 5768 5764 5760 5754 5749 5742 5735 5728 5722 5714 5707 5702 5696 5689 5683 5678 5672 5665 5658 5654 5648
5811 5805 5802 5798 5795 5791 5787 5782 5777 5770 5764 5760 5756 5751 5745 5739 5732 5725 5716 5709 5702 5695 5688 5680 5673 5665 5658 5651 5643 5637 5630 5625
5804 5802 5797 5792 5788 5783 5776 5771 5767 5762 5757 5753 5748 5742 5735 5727 5720 5713 5704 5695 5686 5678 5670 5662 5654 5645 5636 5628 5622 5614 5608 5601
5790 5788 5786 5783 5778 5772 5765 5760 5754 5749 5747 5743 5738 5732 5725 5717 5709 5700 5690 5681 5670 5658 5647 5639 5629 5620 5611 5602 5595 5588 5582 5574
5778 5775 5771 5771 5769 5764 5759 5755 5749 5742 5735 5728 5721 5714 5706 5699 5691 5682 5673 5661 5648 5636 5625 5616 5607 5596 5587 5579 5571 5561 5556 5549
5776 5768 5766 5761 5756 5752 5748 5742 5738 5733 5726 5720 5713 5705 5697 5687 5676 5665 5653 5639 5627 5615 5604 5593 5584 5574 5563 5554 5545 5535 5526 5519
5766 5761 5757 5752 5748 5743 5738 5733 5727 5721 5714 5706 5696 5685 5675 5664 5654 5642 5628 5616 5604 5592 5581 5569 5559 5547 5538 5527 5517 5507 5498 5490
5753 5750 5746 5742 5738 5734 5729 5723 5716 5708 5699 5690 5679 5667 5655 5644 5632 5620 5607 5594 5582 5570 5558 5546 5533 5520 5509 5499 5491 5483 5476 5471
5753 5746 5740 5737 5732 5726 5719 5711 5704 5695 5685 5673 5661 5649 5637 5623 5611 5600 5586 5573 5560 5547 5534 5522 5510 5499 5488 5479 5471 5465 5459 5454
5746 5741 5735 5729 5722 5715 5708 5700 5691 5680 5669 5656 5643 5631 5618 5604 5592 5575 5557 5542 5533 5523 5512 5500 5488 5477 5468 5460 5454 5448 5443 5438
5737 5731 5726 5720 5714 5706 5697 5687 5676 5664 5652 5637 5622 5606 5592 5578 5564 5553 5538 5523 5511 5502 5492 5481 5470 5458 5451 5445 5440 5434 5428 5423
5727 5721 5715 5707 5699 5690 5681 5671 5658 5645 5632 5616 5600 5585 5572 5560 5543 5530 5517 5502 5493 5486 5478 5467 5457 5446 5439 5433 5428 5421 5415 5408
5715 5709 5702 5695 5686 5676 5664 5653 5641 5626 5610 5597 5584 5568 5551 5538 5526 5512 5500 5492 5482 5473 5463 5456 5446 5439 5429 5422 5416 5408 5400 5392
5707 5699 5691 5682 5672 5661 5650 5635 5620 5606 5590 5574 5563 5550 5534 5520 5506 5494 5487 5478 5469 5462 5451 5443 5435 5428 5418 5410 5404 5394 5384 5375
5695 5686 5677 5667 5656 5644 5630 5616 5602 5589 5573 5558 5543 5529 5516 5501 5489 5475 5470 5462 5458 5451 5440 5432 5425 5417 5407 5398 5389 5379 5368 5359
5681 5672 5662 5650 5639 5627 5614 5601 5587 5571 5558 5542 5526 5512 5498 5483 5473 5464 5455 5451 5446 5441 5432 5423 5415 5406 5396 5385 5375 5365 5356 5345